Regional Weather Roundup
Issued by NWS

Home | Current Version | Previous Version | Text Only | Print | Product List | Glossary Off
Versions: 1 2 3 4 5 6 7 8 9 10 11 12 13 14 15 16 17 18 19 20 21 22 23 24 25 26 27

000
ASUS45 KBOU 162006
RWRCO

WEATHER ROUNDUP FOR COLORADO
NATIONAL WEATHER SERVICE DENVER/BOULDER CO
200 PM MDT WED APR 16 2014

NOTE: "FAIR" INDICATES FEW OR NO CLOUDS BELOW 12000 FEET WITH NO
SIGNIFICANT WEATHER AND/OR OBSTRUCTIONS TO VISIBILITY.

COZ001>005-013-030-031-162100-
...NORTHWEST COLORADO...

CITY           SKY/WX    TMP DP  RH WIND       PRES   REMARKS
CRAIG          MOSUNNY   48  10  21 W8        29.98F
HAYDEN         MOSUNNY   45   9  23 W13G18    30.00S
MEEKER         PTSUNNY   50   6  16 CALM      29.97S
MOUNT WERNER   NOT AVBL
STEAMBOAT SPGS MOSUNNY   46   2  16 SW9G18    29.97S
WALDEN         SUNNY     39  10  30 W16G22    29.97S
$$

COZ006>008-011-162100-
...WEST CENTRAL VALLEYS...

CITY           SKY/WX    TMP DP  RH WIND       PRES   REMARKS
GRAND JUNCTION PTSUNNY   55  11  17 SW5       29.92F
MONTROSE       CLOUDY    54  15  21 MISG      29.95F
EAGLE          MOSUNNY   52  10  19 W10G16    29.94F
RIFLE          MOSUNNY   55   6  14 CALM      29.92F
DELTA          CLOUDY    60   8  12 SW14G20   29.92F
NUCLA            N/A     57  12  17 NW12      29.95F
$$

COZ017>023-064>068-162100-
...SOUTHWEST COLORADO...

CITY           SKY/WX    TMP DP  RH WIND       PRES   REMARKS
DURANGO        CLOUDY    61  14  16 W23G30    29.86F
CORTEZ         MOSUNNY   61  19  19 W18G28    29.90F
PAGOSA SPRINGS CLOUDY    58   9  14 SW18G28   29.89R
TELLURIDE      CLOUDY    45  18  33 NW5       29.99R
WOLF CREEK PAS CLOUDY    32  14  47 SW14G29   30.03F WCI  22
$$

COZ009-010-012-014-032>034-037-058>063-162100-
...CENTRAL COLORADO...

CITY           SKY/WX    TMP DP  RH WIND       PRES   REMARKS
ASPEN          PTSUNNY   49  12  22 N8G18     29.93F
BUENA VISTA    CLOUDY    52   8  17 W15G26    29.89R
COPPER MTN     PTSUNNY   32   3  29 W21G29    30.01F WCI  20
BERTHOUD PASS  FAIR      21  12  68 NW20G28   30.01R WCI   6
COTTONWOOD PAS CLOUDY    46   5  18 W13G26    29.95S
GUNNISON       CLOUDY    48  12  23 W18G25    29.96R
KREMMLING      PTSUNNY   50   5  16 W8        29.97S
LEADVILLE      CLOUDY    36   8  31 NW12      29.96F
MONARCH PASS   CLOUDY    32  14  47 W37G45    30.11R WCI  16
SALIDA         CLOUDY    58  11  16 W20G26    29.96R
SUNLIGHT       MOSUNNY   36  10  35 SW5       30.04S
WILKERSON PASS CLOUDY    36  10  35 W5        30.01S
$$

COZ069>075-162100-
...SAN LUIS VALLEY/SANGRE DE CRISTO MOUNTAINS...

CITY           SKY/WX    TMP DP  RH WIND       PRES   REMARKS
ALAMOSA        MOSUNNY   59  11  15 VRB6      29.83F
LA VETA PASS   CLOUDY    39  27  60 E13G20    29.99R
SAGUACHE       CLOUDY    55  14  19 NW24G31   29.89R
$$

COZ035-036-038>040-162100-
...NORTHERN COLORADO FRONT RANGE...

CITY           SKY/WX    TMP DP  RH WIND       PRES   REMARKS
DENVER INTL AP PTSUNNY   53  18  25 N15G29    29.91S
DMNS CITY PARK   N/A     54  17  22 N9G21     29.91R
AURORA         PTSUNNY   54  18  24 NE15G24   29.92R
FRONT RANGE AP NOT AVBL
ERIE MUNI ARPT PTSUNNY   55  17  23 NE12G21   29.90R
BOULDER MUN AP PTSUNNY   55  21  26 NE9G17    29.89S
CENTENNIAL     PTSUNNY   50  16  25 N12       29.91S
BROOMFIELD     NOT AVBL
FORT COLLINS   MOSUNNY   57  21  24 N17G30    29.90F
LONGMONT       MOSUNNY   59  21  23 NE12      29.91S
$$

COZ041-046-047-076>085-087-088-162100-
...PIKES PEAK/PALMER DIVIDE AND SOUTHERN FOOTHILLS...

CITY           SKY/WX    TMP DP  RH WIND       PRES   REMARKS
COLO. SPRINGS  PTSUNNY   49  26  41 NE20      29.92R
A. F. ACADEMY  CLOUDY    47  19  32 VRB7      29.93R
ELLICOTT       NOT AVBL
FALCON         CLOUDY    48  18  30 N9G20     29.94R
FORT CARSON    PTSUNNY   54  24  31 NE15      29.90R
LIMON          MOSUNNY   50  24  36 N26G35    29.92R
MONUMENT HILL  PTSUNNY   43  18  36 NE9G20    29.93R
TRINIDAD       MOSUNNY   58  26  29 E15       29.87S
$$

COZ042>045-048>051-090-091-162100-
...NORTHEAST COLORADO...

CITY           SKY/WX    TMP DP  RH WIND       PRES   REMARKS
GREELEY ARPT   SUNNY     54  23  30 N20G30    29.91R
AKRON          MOSUNNY   51  25  36 N24G36    29.93R
BURLINGTON     SUNNY     57  24  28 N33G41    29.87F
WRAY           PTSUNNY   57  29  33 NW23G30   29.93R
STERLING       PTSUNNY   55  28  35 N28G35    29.93R
HOLYOKE        PTSUNNY   55  34  44 N20G31    29.92R
FORT MORGAN    SUNNY     54  22  28 N26G35    29.92S
$$

COZ086-089-092>099-162100-
...SOUTHEAST COLORADO...

CITY           SKY/WX    TMP DP  RH WIND       PRES   REMARKS
PUEBLO         PTSUNNY   61  21  21 E7G16     29.86R
LA JUNTA       SUNNY     63  21  20 VRB5G18   29.87S
LAMAR          MOSUNNY   64  23  21 N17G28    29.87R
SPRINGFIELD      N/A     62  23  22 N16G23    29.89S
$$



USA.gov is the U.S. government's official web portal to all federal, state and local government web resources and services.